Regional Weather Roundup
Issued by NWS

Home | Current Version | Previous Version | Graphics & Text | Print | Product List | Glossary On
Versions: 1 2 3 4 5 6 7 8 9 10 11 12 13 14 15 16 17 18 19 20 21 22 23 24 25 26 27 28 29 30 31 32 33 34 35 36 37 38 39 40 41 42 43 44 45 46 47 48 49 50
000
ASUS43 KMPX 230110
RWRMN
WEATHER ROUNDUP FOR MINNESOTA
NATIONAL WEATHER SERVICE TWIN CITIES/CHANHASSEN MN
800 PM CDT WED OCT 22 2014


NOTE: "FAIR" INDICATES FEW OR NO CLOUDS BELOW 12,000 FEET WITH NO
SIGNIFICANT WEATHER AND/OR OBSTRUCTIONS TO VISIBILITY. N/A MEANS
CURRENT SKY AND/OR WEATHER CONDITIONS ARE NOT AVAILABLE.

MNZ060>063-068>070-230200-
   Twin Cities Metro

CITY           SKY/WX    TMP DP  RH WIND       PRES   REMARKS
TWIN CITIES    CLOUDY    57  40  52 SE14G23   30.05R
ST PAUL        CLOUDY    56  41  57 SE15      30.06S
CRYSTAL        MOCLDY    59  40  49 S16G26    30.04R
BLAINE         CLOUDY    57  43  58 SE18G26   30.03S
LAKEVILLE      MOCLDY    55  41  58 SE10G16   30.05S
EDEN PRAIRIE   FAIR      57  41  55 S15G22    30.05R
SOUTH ST PAUL  CLOUDY    57  40  52 SE8G16    30.06R
LAKE ELMO      FAIR      55  41  58 S13G20    30.07S
$$
MNZ001>005-007-008-013>017-022>024-027-028-230200-
   Northwest Minnesota

CITY           SKY/WX    TMP DP  RH WIND       PRES   REMARKS
BEMIDJI        CLOUDY    55  43  63 SE14      29.90S
HALLOCK        CLOUDY    55  54  94 S9        29.81S
ROSEAU         CLOUDY    61  48  63 S14       29.82S
WARROAD        CLOUDY    59  48  67 S12       29.84S
THIEF RVR FALL CLOUDY    54  52  94 S7        29.86R
CROOKSTON      CLOUDY    55  54  94 SW8       29.86S
FOSSTON        CLOUDY    54  48  82 S12       29.89R
DETROIT LAKES  DRIZZLE   55  50  82 S7        29.92R
MOORHEAD       CLOUDY    55  55 100 SW6       29.91R
PARK RAPIDS    CLOUDY    57  43  59 SE16      29.92R
MAHNOMEN       DRIZZLE   54  52  93 SW5       29.89R
$$
MNZ006-009>011-018-025>026-230200-
   North Central Minnesota

CITY           SKY/WX    TMP DP  RH WIND       PRES   REMARKS
BAUDETTE       CLOUDY    57  43  59 S12G21    29.88S
FLAG ISLAND    CLOUDY    54  46  76 S21       29.83R
INTL FALLS     CLOUDY    56  41  57 S8G17     29.94S
WASKISH        CLOUDY    55  45  67 SE10G16   29.90S
BIG FORK       CLOUDY    54  41  62 SE10      29.96S
LONGVILLE      CLOUDY    54  43  66 SE10      29.96S
GRAND RAPIDS   CLOUDY    52  39  62 SE13      29.99S
CRANE LAKE     PTCLDY    52  37  58 SE5       30.01S
ORR            PTCLDY    52  37  58 S8        29.97R
COOK           MOCLDY    52  39  62 SE8       30.00S
WALKER         CLOUDY    55  42  63 S14G21    29.93S
$$
MNZ012-019>021-037-230200-
   Northeast Minnesota

CITY           SKY/WX    TMP DP  RH WIND       PRES   REMARKS
DULUTH         MOCLDY    50  38  63 SE8       30.05R
ELY            PTCLDY    46  34  61 SE8       30.03S
HIBBING        MOCLDY    52  38  58 S7        30.02R
EVELETH        PTCLDY    52  39  62 SE8       30.04R
DULUTH HARBOR  MOCLDY    52  46  82 CALM      30.07R
TWO HARBORS    PTCLDY    48  30  49 E6        30.05S
SILVER BAY     PTCLDY    46  41  81 NE5       30.06F
GRAND MARAIS     N/A     48  36  63 NE6       30.10F
G MARAIS ARPRT MOCLDY    43  30  61 E5        30.10F
$$
MNZ029>031-032-039>041-046>048-054>057-064-230200-
   West Central Minnesota

CITY           SKY/WX    TMP DP  RH WIND       PRES   REMARKS
FERGUS FALLS   CLOUDY    55  54  94 SW3       29.92S
WHEATON        CLOUDY    54  52  94 SW8       29.94R
MORRIS         CLOUDY    57  55  94 S8        29.92S FOG
ALEXANDRIA     LGT RAIN  56  50  80 S14       29.95S
ELBOW LAKE     CLOUDY    55  54  95 SE10      29.91F
WADENA         RAIN      55  46  71 S12       29.93R
GLENWOOD       LGT RAIN  55  50  82 S13G20    29.96R
APPLETON       CLOUDY    61  55  82 S5        29.93S
BENSON         DRIZZLE   57  55  94 S7        29.94F
ORTONVILLE     CLOUDY    57  55  94 W7        29.93R
MADISON        CLOUDY    63  57  82 SW8       29.94R
WILLMAR        LGT RAIN  61  46  59 S9        29.97S
$$
MNZ033>034-036-042>043-049>051-058-059-230200-
   Central Minnesota

CITY           SKY/WX    TMP DP  RH WIND       PRES   REMARKS
ST CLOUD       CLOUDY    58  43  57 SE12      30.00R
SAUK CENTRE    CLOUDY    59  45  59 SE14      29.96F
PAYNESVILLE    CLOUDY    57  43  59 E13       29.98S
AITKIN         CLOUDY    55  43  62 SE10      29.99R
PINE RIVER     CLOUDY    55  45  67 SE10      29.99S
BRAINERD       CLOUDY    54  42  64 S14       29.99R
STAPLES        CLOUDY    55  43  62 SE9G18    29.95R
LONG PRAIRIE   CLOUDY    57  45  62 SE18      29.96S
LITTLE FALLS   CLOUDY    55  41  58 SE10      29.99R
LITCHFIELD     MOCLDY    61  45  55 S9G20     30.00R
BUFFALO        MOCLDY    56  41  57 SE8       30.04R
MAPLE LAKE     MOCLDY    57  45  62 SE9       30.02S
$$
MNZ037-044-045-052-053-230200-
   East Central Minnesota

CITY           SKY/WX    TMP DP  RH WIND       PRES   REMARKS
PRINCETON      CLOUDY    57  43  58 SE8       30.03R
MORA           CLOUDY    50  37  62 SE5       30.06R
CAMBRIDGE      CLOUDY    57  43  58 SE8G17    30.03R
RUSH CITY      CLOUDY    55  39  55 S8G18     30.05R
MOOSE LAKE     MOCLDY    50  39  66 CALM      30.03R
HINCKLEY       MOCLDY    54  39  58 SE7       30.05R
CLOQUET        MOCLDY    48  39  71 SE6       30.04S
MCGREGOR       MOCLDY    54  41  62 S9        30.02S
$$
MNZ071>073-080-081-089-090-097-098-230200-
   Southwest Minnesota

CITY           SKY/WX    TMP DP  RH WIND       PRES   REMARKS
MONTEVIDEO     LGT RAIN  59  59 100 SW5       29.95F
GRANITE FALLS  RAIN      58  57  97 S3        29.97S
CANBY          CLOUDY    59  55  88 SW5       29.96R
MARSHALL       CLOUDY    59  55  88 S6        29.95S
REDWOOD FALLS  CLOUDY    63  46  54 SE15      29.97R
OLIVIA         CLOUDY    61  45  55 SE12G18   29.96F
PIPESTONE      CLOUDY    57  57 100 SW7       29.98R FOG
WINDOM         CLOUDY    63  46  55 SE14G20   30.01S
WORTHINGTON    CLOUDY    57  55  94 S10       30.01S
JACKSON        CLOUDY    61  45  55 S10       30.05R
TRACY          LGT RAIN  60  58  92 SW9       29.98R
SLAYTON        LGT RAIN  58  58  98 S9        30.00R
$$
MNZ065>067-074>077-082>085-091>093-230200-
   South Central Minnesota

CITY           SKY/WX    TMP DP  RH WIND       PRES   REMARKS
MANKATO        PTCLDY    57  39  51 S17G25    30.03R
NEW ULM        MOCLDY    61  46  59 S18G24    30.01R
ST JAMES       CLOUDY    61  45  55 S15G21    30.04R
FAIRMONT       CLOUDY    57  43  58 S21G26    30.02S
GLENCOE        MOCLDY    59  45  60 SE8       30.02R
FARIBAULT      CLOUDY    55  41  58 SE14G22   30.06S
OWATONNA       CLOUDY    55  39  54 SE18G26   30.06S
WASECA         MOCLDY    55  37  50 SE14G23   30.06F
ALBERT LEA     CLOUDY    55  41  58 SE17      30.08S
$$
MNZ078>079-086>088-094>096-230200-
   Southeast Minnesota

CITY           SKY/WX    TMP DP  RH WIND       PRES   REMARKS
ROCHESTER      CLOUDY    54  38  54 S15G28    30.12S
STANTON        CLOUDY    57  40  51 S14G23    30.06R
DODGE CENTER   CLOUDY    55  41  58 S18       30.09S
WINONA         MOCLDY    54  37  54 SE5       30.16R
AUSTIN         LGT RAIN  55  41  58 SE12G20   30.10S
PRESTON        MOCLDY    52  37  57 S10       30.15S
$$
ABBREVIATIONS USED IN REMARKS
   TC - TEMPERATURES IN CELSIUS
  WCI - WIND CHILL INDEX
   HX - HEAT INDEX
  VSB - VISIBILITY
$$



USA.gov is the U.S. government's official web portal to all federal, state and local government web resources and services.